This is the latest recevied weather packets stored in our database for station/object KD4EG. If no packets are shown the sender has not sent any weather packets the latest 10 day(s).
| Time | Temp. | Humidity | Pressure | Rain* | Wind** | Luminosity | Snow |
|---|---|---|---|---|---|---|---|
| 1777485036 | 16.67° C | 99% | 1012.4 hPa | 0 mm | - | 300 W/m² | - |
| 1777484733 | 16.67° C | 99% | 1012.9 hPa | 0 mm | - | 310 W/m² | - |
| 1777484430 | 16.67° C | 99% | 1012.9 hPa | 0 mm | - | 449 W/m² | - |
| 1777484127 | 16.11° C | 99% | 1013 hPa | 0 mm | - | 337 W/m² | - |
| 1777483823 | 16.11° C | 99% | 1013 hPa | 0 mm | - | 237 W/m² | - |
| 1777483520 | 16.11° C | 99% | 1013.4 hPa | 0 mm | - | 194 W/m² | - |
| 1777483220 | 16.11° C | 99% | 1013.2 hPa | 0 mm | - | 245 W/m² | - |
| 1777482917 | 16.11° C | 99% | 1013.4 hPa | 3.05 mm | - | 656 W/m² | - |
| 1777482612 | 16.11° C | 99% | 1013.6 hPa | 3.05 mm | - | 203 W/m² | - |
| 1777482310 | 15.56° C | 99% | 1013.7 hPa | 0 mm | - | 131 W/m² | - |
| 1777482007 | 15.56° C | 99% | 1013.6 hPa | 1.27 mm | - | 121 W/m² | - |
| 1777481705 | 15.56° C | 99% | 1013.8 hPa | 1.27 mm | - | 161 W/m² | - |
| 1777481401 | 15.56° C | 99% | 1013.8 hPa | 0 mm | - | 135 W/m² | - |
| 1777481098 | 15.56° C | 99% | 1013.9 hPa | 0 mm | - | 126 W/m² | - |
| 1777480794 | 15.56° C | 99% | 1013.8 hPa | 0 mm | - | 117 W/m² | - |
| 1777480491 | 16.11° C | 99% | 1013.9 hPa | 1.78 mm | - | 138 W/m² | - |
| 1777480188 | 15.56° C | 99% | 1013.8 hPa | 4.83 mm | - | 132 W/m² | - |
| 1777479884 | 15.56° C | 99% | 1014.1 hPa | 8.89 mm | - | 122 W/m² | - |
| 1777479581 | 15.56° C | 99% | 1014.3 hPa | 9.65 mm | - | 115 W/m² | - |
| 1777479279 | 15.56° C | 99% | 1014.4 hPa | 1.78 mm | - | 92 W/m² | - |
| 1777478975 | 15.56° C | 99% | 1014.3 hPa | 0 mm | - | 98 W/m² | - |
| 1777478672 | 15.56° C | 99% | 1014.2 hPa | 0 mm | - | 125 W/m² | - |
| 1777478368 | 15.56° C | 99% | 1014.3 hPa | 0 mm | - | 134 W/m² | - |
| 1777478065 | 15.56° C | 99% | 1014.6 hPa | 0 mm | - | 130 W/m² | - |
| 1777477761 | 15.56° C | 99% | 1014.6 hPa | 0 mm | - | 96 W/m² | - |
* Rain latest hour (hover to see other rain measurements)
** Current wind speed in m/s (hover to see current wind gust speed)